Time,TemperatureF,DewpointF,PressureIn,WindDirection,WindDirectionDegrees,WindSpeedMPH,WindSpeedGustMPH,Humidity,HourlyPrecipIn,Conditions,Clouds,dailyrainin,SolarRadiationWatts/m^2,SoftwareType,DateUTC
2013-03-14 00:00:00,27.1,21.2,30.15,NW,310,2.0,12.0,78,0.00,,---,0.04,0.00,VWS V14.01,2013-03-14 04:00:00,
2013-03-14 00:05:00,27.1,20.9,30.15,West,269,5.0,10.0,77,0.00,,---,0.00,0.00,VWS V14.01,2013-03-14 04:05:00,
2013-03-14 00:10:00,27.1,20.9,30.15,WSW,238,7.0,9.0,77,0.00,,---,0.00,0.00,VWS V14.01,2013-03-14 04:10:00,
2013-03-14 00:15:00,27.2,21.3,30.15,WNW,291,3.0,12.0,78,0.00,,---,0.00,0.00,VWS V14.01,2013-03-14 04:15:00,
2013-03-14 00:20:00,27.1,20.9,30.15,WSW,246,2.0,11.0,77,0.00,,---,0.00,0.00,VWS V14.01,2013-03-14 04:20:00,
2013-03-14 00:25:00,27.1,20.9,30.15,West,271,2.0,8.0,77,0.00,,---,0.00,0.00,VWS V14.01,2013-03-14 04:25:00,
2013-03-14 00:30:00,27.0,20.8,30.15,SW,232,6.0,10.0,77,0.00,,---,0.00,0.00,VWS V14.01,2013-03-14 04:30:00,
2013-03-14 00:40:00,27.0,20.8,30.15,NNW,329,1.0,10.0,77,0.00,,---,0.00,0.00,VWS V14.01,2013-03-14 04:40:00,
2013-03-14 00:50:00,27.0,21.1,30.15,WNW,291,5.0,15.0,78,0.00,,---,0.00,0.00,VWS V14.01,2013-03-14 04:50:00,
2013-03-14 01:00:00,26.9,20.7,30.14,WSW,250,0.0,8.0,77,0.00,,---,0.00,0.00,VWS V14.01,2013-03-14 05:00:00,
2013-03-14 01:05:00,26.9,21.0,30.14,WNW,286,4.0,6.0,78,0.00,,---,0.00,0.00,VWS V14.01,2013-03-14 05:05:00,
2013-03-14 01:15:00,26.9,20.7,30.15,SW,226,6.0,10.0,77,0.00,,---,0.00,0.00,VWS V14.01,2013-03-14 05:15:00,
2013-03-14 01:20:00,26.9,20.7,30.14,WSW,246,0.0,11.0,77,0.00,,---,0.00,0.00,VWS V14.01,2013-03-14 05:20:00,
2013-03-14 01:25:00,26.8,20.3,30.14,NW,304,1.0,8.0,76,0.00,,---,0.00,0.00,VWS V14.01,2013-03-14 05:25:00,
2013-03-14 01:35:00,26.7,20.5,30.15,NNW,334,0.0,7.0,77,0.00,,---,0.00,0.00,VWS V14.01,2013-03-14 05:35:00,
2013-03-14 01:45:00,26.8,20.6,30.15,NW,304,10.0,14.0,77,0.00,,---,0.00,0.00,VWS V14.01,2013-03-14 05:45:00,
2013-03-14 01:50:00,26.8,20.3,30.15,West,277,2.0,15.0,76,0.00,,---,0.00,0.00,VWS V14.01,2013-03-14 05:50:00,
2013-03-14 02:00:00,26.8,20.3,30.15,NW,318,11.0,11.0,76,0.00,,---,0.00,0.00,VWS V14.01,2013-03-14 06:00:00,
2013-03-14 02:05:00,26.8,20.3,30.15,NW,313,7.0,11.0,76,0.00,,---,0.00,0.00,VWS V14.01,2013-03-14 06:05:00,
2013-03-14 02:10:00,26.8,20.3,30.15,NW,323,1.0,7.0,76,0.00,,---,0.00,0.00,VWS V14.01,2013-03-14 06:10:00,
2013-03-14 02:15:00,26.8,20.3,30.15,WSW,238,5.0,8.0,76,0.00,,---,0.00,0.00,VWS V14.01,2013-03-14 06:15:00,
2013-03-14 02:20:00,26.8,20.3,30.15,NW,316,0.0,8.0,76,0.00,,---,0.00,0.00,VWS V14.01,2013-03-14 06:20:00,
2013-03-14 02:25:00,26.7,20.2,30.15,West,281,0.0,11.0,76,0.00,,---,0.00,0.00,VWS V14.01,2013-03-14 06:25:00,
2013-03-14 02:30:00,26.7,20.5,30.15,NW,321,6.0,17.0,77,0.00,,---,0.00,0.00,VWS V14.01,2013-03-14 06:30:00,
2013-03-14 02:35:00,26.7,20.2,30.15,NW,312,4.0,11.0,76,0.00,,---,0.00,0.00,VWS V14.01,2013-03-14 06:35:00,
2013-03-14 02:45:00,26.7,20.2,30.15,WNW,293,5.0,8.0,76,0.00,,---,0.00,0.00,VWS V14.01,2013-03-14 06:45:00,
2013-03-14 02:55:00,26.6,20.4,30.15,WSW,258,0.0,5.0,77,0.00,,---,0.00,0.00,VWS V14.01,2013-03-14 06:55:00,
2013-03-14 03:05:00,26.6,20.1,30.15,West,277,6.0,14.0,76,0.00,,---,0.00,0.00,VWS V14.01,2013-03-14 07:05:00,
2013-03-14 03:15:00,26.5,20.0,30.15,NW,314,7.0,10.0,76,0.00,,---,0.00,0.00,VWS V14.01,2013-03-14 07:15:00,
2013-03-14 03:25:00,26.4,19.9,30.15,NNW,348,3.0,10.0,76,0.00,,---,0.00,0.00,VWS V14.01,2013-03-14 07:25:00,
2013-03-14 03:30:00,26.4,19.6,30.15,NNW,336,5.0,11.0,75,0.00,,---,0.00,0.00,VWS V14.01,2013-03-14 07:30:00,
2013-03-14 03:35:00,26.4,19.6,30.15,NW,325,1.0,9.0,75,0.00,,---,0.00,0.00,VWS V14.01,2013-03-14 07:35:00,
2013-03-14 03:45:00,26.3,19.5,30.15,NW,304,9.0,12.0,75,0.00,,---,0.00,0.00,VWS V14.01,2013-03-14 07:45:00,
2013-03-14 03:50:00,26.3,19.5,30.15,NNW,340,5.0,16.0,75,0.00,,---,0.00,0.00,VWS V14.01,2013-03-14 07:50:00,
2013-03-14 04:00:00,26.1,19.6,30.15,NNW,340,3.0,10.0,76,0.00,,---,0.00,0.00,VWS V14.01,2013-03-14 08:00:00,
2013-03-14 04:05:00,25.9,19.1,30.15,WSW,250,0.0,8.0,75,0.00,,---,0.00,0.00,VWS V14.01,2013-03-14 08:05:00,
2013-03-14 04:15:00,25.5,19.0,30.15,WNW,297,5.0,15.0,76,0.00,,---,0.00,0.00,VWS V14.01,2013-03-14 08:15:00,
2013-03-14 04:20:00,25.5,19.0,30.15,NW,308,4.0,10.0,76,0.00,,---,0.00,0.00,VWS V14.01,2013-03-14 08:20:00,
2013-03-14 04:25:00,25.4,18.6,30.15,NW,317,10.0,14.0,75,0.00,,---,0.00,0.00,VWS V14.01,2013-03-14 08:25:00,
2013-03-14 04:30:00,25.3,18.8,30.15,NW,322,2.0,15.0,76,0.00,,---,0.00,0.00,VWS V14.01,2013-03-14 08:30:00,
2013-03-14 04:40:00,25.2,18.4,30.16,WSW,248,0.0,11.0,75,0.00,,---,0.00,0.00,VWS V14.01,2013-03-14 08:40:00,
2013-03-14 04:45:00,25.2,18.4,30.16,NW,325,1.0,12.0,75,0.00,,---,0.00,0.00,VWS V14.01,2013-03-14 08:45:00,
2013-03-14 04:55:00,25.1,18.3,30.16,NW,324,8.0,8.0,75,0.00,,---,0.00,0.00,VWS V14.01,2013-03-14 08:55:00,
2013-03-14 05:00:00,25.1,18.3,30.16,NNW,334,1.0,13.0,75,0.00,,---,0.00,0.00,VWS V14.01,2013-03-14 09:00:00,
2013-03-14 05:05:00,25.1,18.3,30.16,WNW,293,2.0,13.0,75,0.00,,---,0.00,0.00,VWS V14.01,2013-03-14 09:05:00,
2013-03-14 05:10:00,25.0,18.2,30.16,WSW,254,2.0,9.0,75,0.00,,---,0.00,0.00,VWS V14.01,2013-03-14 09:10:00,
2013-03-14 05:15:00,25.0,18.2,30.16,SSW,212,0.0,14.0,75,0.00,,---,0.00,0.00,VWS V14.01,2013-03-14 09:15:00,
2013-03-14 05:20:00,24.9,18.1,30.16,West,261,1.0,7.0,75,0.00,,---,0.00,0.00,VWS V14.01,2013-03-14 09:20:00,
2013-03-14 05:25:00,24.8,18.0,30.16,SW,220,3.0,8.0,75,0.00,,---,0.00,0.00,VWS V14.01,2013-03-14 09:25:00,
2013-03-14 05:30:00,24.7,17.9,30.16,WSW,241,2.0,9.0,75,0.00,,---,0.00,0.00,VWS V14.01,2013-03-14 09:30:00,
2013-03-14 05:40:00,24.5,17.7,30.17,WNW,298,2.0,9.0,75,0.00,,---,0.00,0.00,VWS V14.01,2013-03-14 09:40:00,
2013-03-14 05:45:00,24.5,18.0,30.17,WSW,252,0.0,9.0,76,0.00,,---,0.00,0.00,VWS V14.01,2013-03-14 09:45:00,
2013-03-14 05:55:00,24.7,18.2,30.17,NNW,339,3.0,8.0,76,0.00,,---,0.00,0.00,VWS V14.01,2013-03-14 09:55:00,
2013-03-14 06:05:00,24.8,18.0,30.17,ENE,68,0.0,19.0,75,0.00,,---,0.00,0.00,VWS V14.01,2013-03-14 10:05:00,
2013-03-14 06:10:00,24.8,18.0,30.18,NW,317,3.0,9.0,75,0.00,,---,0.00,0.00,VWS V14.01,2013-03-14 10:10:00,
2013-03-14 06:15:00,24.7,17.9,30.18,WNW,303,2.0,11.0,75,0.00,,---,0.00,0.00,VWS V14.01,2013-03-14 10:15:00,
2013-03-14 06:20:00,24.7,17.9,30.18,NW,316,4.0,13.0,75,0.00,,---,0.00,0.00,VWS V14.01,2013-03-14 10:20:00,
2013-03-14 06:30:00,24.7,17.6,30.18,WNW,288,5.0,11.0,74,0.00,,---,0.00,0.00,VWS V14.01,2013-03-14 10:30:00,
2013-03-14 06:40:00,24.7,17.6,30.19,NNW,329,3.0,9.0,74,0.00,,---,0.00,0.00,VWS V14.01,2013-03-14 10:40:00,
2013-03-14 06:50:00,24.5,17.4,30.19,WSW,257,6.0,11.0,74,0.00,,---,0.00,0.00,VWS V14.01,2013-03-14 10:50:00,
2013-03-14 06:55:00,24.4,17.3,30.20,NW,307,4.0,15.0,74,0.00,,---,0.00,0.00,VWS V14.01,2013-03-14 10:55:00,
2013-03-14 07:00:00,24.3,17.2,30.20,SSE,159,0.0,8.0,74,0.00,,---,0.00,0.00,VWS V14.01,2013-03-14 11:00:00,
2013-03-14 07:05:00,24.3,17.5,30.20,NNW,331,0.0,8.0,75,0.00,,---,0.00,0.00,VWS V14.01,2013-03-14 11:05:00,
2013-03-14 07:10:00,24.3,17.5,30.20,West,275,0.0,10.0,75,0.00,,---,0.00,0.00,VWS V14.01,2013-03-14 11:10:00,
2013-03-14 07:15:00,24.2,17.4,30.20,NW,304,7.0,10.0,75,0.00,,---,0.00,0.00,VWS V14.01,2013-03-14 11:15:00,
2013-03-14 07:20:00,24.0,17.2,30.20,SSW,192,4.0,7.0,75,0.00,,---,0.00,0.00,VWS V14.01,2013-03-14 11:20:00,
2013-03-14 07:30:00,23.9,17.1,30.21,WNW,299,2.0,14.0,75,0.00,,---,0.00,0.00,VWS V14.01,2013-03-14 11:30:00,
2013-03-14 07:35:00,23.9,17.1,30.21,NW,318,5.0,10.0,75,0.00,,---,0.00,5.00,VWS V14.01,2013-03-14 11:35:00,
2013-03-14 07:40:00,23.9,17.1,30.21,WNW,292,0.0,7.0,75,0.00,,---,0.00,7.00,VWS V14.01,2013-03-14 11:40:00,
2013-03-14 07:50:00,23.8,17.4,30.22,West,281,1.0,6.0,76,0.00,,---,0.00,14.00,VWS V14.01,2013-03-14 11:50:00,
2013-03-14 07:55:00,23.9,17.5,30.22,NW,315,6.0,6.0,76,0.00,,---,0.00,19.00,VWS V14.01,2013-03-14 11:55:00,
2013-03-14 08:00:00,24.0,17.5,30.22,West,269,0.0,7.0,76,0.00,,---,0.00,21.00,VWS V14.01,2013-03-14 12:00:00,
2013-03-14 08:05:00,24.1,17.3,30.22,WNW,290,2.0,9.0,75,0.00,,---,0.00,30.00,VWS V14.01,2013-03-14 12:05:00,
2013-03-14 08:10:00,24.1,17.3,30.22,WNW,294,1.0,13.0,75,0.00,,---,0.00,37.00,VWS V14.01,2013-03-14 12:10:00,
2013-03-14 08:15:00,24.2,17.4,30.23,ESE,109,0.0,8.0,75,0.00,,---,0.00,40.00,VWS V14.01,2013-03-14 12:15:00,
2013-03-14 08:20:00,24.3,17.5,30.23,WNW,292,5.0,9.0,75,0.00,,---,0.00,56.00,VWS V14.01,2013-03-14 12:20:00,
2013-03-14 08:30:00,24.5,17.7,30.23,WSW,241,3.0,10.0,75,0.00,,---,0.00,63.00,VWS V14.01,2013-03-14 12:30:00,
2013-03-14 08:35:00,24.6,17.5,30.23,NW,308,6.0,9.0,74,0.00,,---,0.00,76.00,VWS V14.01,2013-03-14 12:35:00,
2013-03-14 08:40:00,24.7,17.6,30.23,NNW,327,1.0,10.0,74,0.00,,---,0.00,60.00,VWS V14.01,2013-03-14 12:40:00,
2013-03-14 08:45:00,24.6,17.5,30.23,WSW,252,2.0,5.0,74,0.00,,---,0.00,70.00,VWS V14.01,2013-03-14 12:45:00,
2013-03-14 08:50:00,24.8,17.7,30.23,West,270,6.0,11.0,74,0.00,,---,0.00,183.00,VWS V14.01,2013-03-14 12:50:00,
2013-03-14 08:55:00,25.4,18.0,30.23,WNW,298,6.0,9.0,73,0.00,,---,0.00,202.00,VWS V14.01,2013-03-14 12:55:00,
2013-03-14 09:00:00,26.1,18.3,30.23,NNW,343,2.0,8.0,72,0.00,,---,0.00,221.00,VWS V14.01,2013-03-14 13:00:00,
2013-03-14 09:05:00,26.5,18.4,30.23,NW,318,7.0,7.0,71,0.00,,---,0.00,234.00,VWS V14.01,2013-03-14 13:05:00,
2013-03-14 09:10:00,26.6,18.1,30.23,NW,304,3.0,12.0,70,0.00,,---,0.00,230.00,VWS V14.01,2013-03-14 13:10:00,
2013-03-14 09:20:00,27.7,19.2,30.23,WNW,296,2.0,7.0,70,0.00,,---,0.00,281.00,VWS V14.01,2013-03-14 13:20:00,
2013-03-14 09:25:00,28.4,19.2,30.23,WNW,298,13.0,13.0,68,0.00,,---,0.00,316.00,VWS V14.01,2013-03-14 13:25:00,
2013-03-14 09:30:00,28.8,18.9,30.23,West,262,7.0,14.0,66,0.00,,---,0.00,336.00,VWS V14.01,2013-03-14 13:30:00,
2013-03-14 09:40:00,29.1,18.8,30.23,WNW,288,4.0,15.0,65,0.00,,---,0.00,359.00,VWS V14.01,2013-03-14 13:40:00,
2013-03-14 09:50:00,29.9,18.9,30.23,NW,313,1.0,11.0,63,0.00,,---,0.00,403.00,VWS V14.01,2013-03-14 13:50:00,
2013-03-14 09:55:00,30.2,19.5,30.23,West,280,3.0,13.0,64,0.00,,---,0.00,408.00,VWS V14.01,2013-03-14 13:55:00,
2013-03-14 10:00:00,30.6,19.9,30.23,SW,227,2.0,10.0,64,0.00,,---,0.00,429.00,VWS V14.01,2013-03-14 14:00:00,
2013-03-14 10:05:00,30.8,19.3,30.23,WSW,258,0.0,10.0,62,0.00,,---,0.00,448.00,VWS V14.01,2013-03-14 14:05:00,
2013-03-14 10:10:00,30.8,20.1,30.22,WNW,302,4.0,9.0,64,0.00,,---,0.00,466.00,VWS V14.01,2013-03-14 14:10:00,
2013-03-14 10:15:00,31.0,19.5,30.22,NW,310,6.0,9.0,62,0.00,,---,0.00,508.00,VWS V14.01,2013-03-14 14:15:00,
2013-03-14 10:20:00,31.6,20.8,30.22,NW,311,2.0,9.0,64,0.00,,---,0.00,513.00,VWS V14.01,2013-03-14 14:20:00,
2013-03-14 10:25:00,31.8,19.1,30.22,WNW,300,0.0,9.0,59,0.00,,---,0.00,617.00,VWS V14.01,2013-03-14 14:25:00,
2013-03-14 10:30:00,32.4,19.7,30.22,NW,317,4.0,10.0,59,0.00,,---,0.00,635.00,VWS V14.01,2013-03-14 14:30:00,
2013-03-14 10:40:00,32.1,19.0,30.22,WNW,284,4.0,15.0,58,0.00,,---,0.00,327.00,VWS V14.01,2013-03-14 14:40:00,
2013-03-14 10:50:00,32.2,20.3,30.22,NW,310,4.0,8.0,61,0.00,,---,0.00,237.00,VWS V14.01,2013-03-14 14:50:00,
2013-03-14 10:55:00,31.9,18.8,30.22,WNW,298,5.0,11.0,58,0.00,,---,0.00,195.00,VWS V14.01,2013-03-14 14:55:00,
2013-03-14 11:00:00,31.5,18.8,30.23,West,265,2.0,8.0,59,0.00,,---,0.00,269.00,VWS V14.01,2013-03-14 15:00:00,
2013-03-14 11:05:00,31.8,19.5,30.22,NW,313,7.0,14.0,60,0.00,,---,0.00,350.00,VWS V14.01,2013-03-14 15:05:00,
2013-03-14 11:15:00,31.5,19.2,30.22,WNW,292,6.0,21.0,60,0.00,,---,0.00,318.00,VWS V14.01,2013-03-14 15:15:00,
2013-03-14 11:25:00,31.6,18.5,30.22,NW,306,4.0,16.0,58,0.00,,---,0.00,237.00,VWS V14.01,2013-03-14 15:25:00,
2013-03-14 11:35:00,30.7,18.1,30.22,NW,315,17.0,19.0,59,0.00,,---,0.00,197.00,VWS V14.01,2013-03-14 15:35:00,
2013-03-14 11:40:00,30.7,19.6,30.22,WNW,283,3.0,17.0,63,0.00,,---,0.00,330.00,VWS V14.01,2013-03-14 15:40:00,
2013-03-14 11:45:00,31.0,18.8,30.22,NNW,333,3.0,13.0,60,0.00,,---,0.00,199.00,VWS V14.01,2013-03-14 15:45:00,
2013-03-14 11:50:00,31.0,19.5,30.22,NW,326,3.0,12.0,62,0.00,,---,0.00,202.00,VWS V14.01,2013-03-14 15:50:00,
2013-03-14 11:55:00,31.0,19.1,30.22,West,259,3.0,9.0,61,0.00,,---,0.00,290.00,VWS V14.01,2013-03-14 15:55:00,
2013-03-14 12:05:00,31.7,19.4,30.22,SW,215,3.0,12.0,60,0.00,,---,0.00,332.00,VWS V14.01,2013-03-14 16:05:00,
2013-03-14 12:10:00,32.0,19.7,30.22,South,169,1.0,8.0,60,0.00,,---,0.00,258.00,VWS V14.01,2013-03-14 16:10:00,
2013-03-14 12:15:00,31.9,20.0,30.22,West,270,0.0,15.0,61,0.00,,---,0.00,336.00,VWS V14.01,2013-03-14 16:15:00,
2013-03-14 12:20:00,32.1,19.4,30.22,NW,320,2.0,21.0,59,0.00,,---,0.00,353.00,VWS V14.01,2013-03-14 16:20:00,
2013-03-14 12:30:00,32.6,20.7,30.22,NW,306,1.0,11.0,61,0.00,,---,0.00,199.00,VWS V14.01,2013-03-14 16:30:00,
2013-03-14 12:40:00,33.6,20.4,30.21,NW,323,4.0,18.0,58,0.00,,---,0.00,304.00,VWS V14.01,2013-03-14 16:40:00,
2013-03-14 12:45:00,34.3,22.3,30.21,NW,317,9.0,13.0,61,0.00,,---,0.00,995.00,VWS V14.01,2013-03-14 16:45:00,
2013-03-14 12:50:00,34.1,19.2,30.21,West,269,10.0,17.0,54,0.00,,---,0.00,364.00,VWS V14.01,2013-03-14 16:50:00,
2013-03-14 13:00:00,33.2,19.6,30.21,NW,304,4.0,17.0,57,0.00,,---,0.00,223.00,VWS V14.01,2013-03-14 17:00:00,
2013-03-14 13:10:00,34.4,20.3,30.21,WSW,252,9.0,19.0,56,0.00,,---,0.00,243.00,VWS V14.01,2013-03-14 17:10:00,
2013-03-14 13:15:00,33.9,20.7,30.21,WNW,298,10.0,18.0,58,0.00,,---,0.00,195.00,VWS V14.01,2013-03-14 17:15:00,
2013-03-14 13:20:00,34.1,20.1,30.21,NW,315,15.0,19.0,56,0.00,,---,0.00,285.00,VWS V14.01,2013-03-14 17:20:00,
2013-03-14 13:25:00,34.0,19.1,30.20,NW,317,9.0,19.0,54,0.00,,---,0.00,229.00,VWS V14.01,2013-03-14 17:25:00,
2013-03-14 13:35:00,34.9,20.8,30.20,SW,225,1.0,18.0,56,0.00,,---,0.00,265.00,VWS V14.01,2013-03-14 17:35:00,
2013-03-14 13:40:00,35.8,20.8,30.20,WNW,284,5.0,13.0,54,0.00,,---,0.00,216.00,VWS V14.01,2013-03-14 17:40:00,
2013-03-14 13:45:00,34.9,19.1,30.20,WNW,302,4.0,14.0,52,0.00,,---,0.00,211.00,VWS V14.01,2013-03-14 17:45:00,
2013-03-14 13:50:00,35.0,19.6,30.20,North,5,11.0,18.0,53,0.00,,---,0.00,970.00,VWS V14.01,2013-03-14 17:50:00,
2013-03-14 13:55:00,34.4,18.6,30.20,West,265,5.0,20.0,52,0.00,,---,0.00,153.00,VWS V14.01,2013-03-14 17:55:00,
2013-03-14 14:00:00,33.9,18.6,30.19,West,263,11.0,16.0,53,0.00,,---,0.00,508.00,VWS V14.01,2013-03-14 18:00:00,
2013-03-14 14:10:00,36.2,20.7,30.19,WNW,296,12.0,15.0,53,0.00,,---,0.00,939.00,VWS V14.01,2013-03-14 18:10:00,
2013-03-14 14:15:00,37.1,19.7,30.19,NW,306,12.0,17.0,49,0.00,,---,0.00,909.00,VWS V14.01,2013-03-14 18:15:00,
2013-03-14 14:20:00,37.8,22.7,30.18,West,275,1.0,15.0,54,0.00,,---,0.00,972.00,VWS V14.01,2013-03-14 18:20:00,
2013-03-14 14:25:00,38.3,19.9,30.18,West,270,5.0,18.0,47,0.00,,---,0.00,260.00,VWS V14.01,2013-03-14 18:25:00,
2013-03-14 14:35:00,37.3,19.4,30.18,WNW,293,6.0,21.0,48,0.00,,---,0.00,302.00,VWS V14.01,2013-03-14 18:35:00,
2013-03-14 14:40:00,36.6,19.3,30.18,WNW,282,2.0,17.0,49,0.00,,---,0.00,250.00,VWS V14.01,2013-03-14 18:40:00,
2013-03-14 14:45:00,37.2,20.8,30.18,NNE,14,4.0,16.0,51,0.00,,---,0.00,893.00,VWS V14.01,2013-03-14 18:45:00,
2013-03-14 14:55:00,38.4,20.9,30.17,North,351,4.0,18.0,49,0.00,,---,0.00,190.00,VWS V14.01,2013-03-14 18:55:00,
2013-03-14 15:00:00,38.2,19.3,30.17,NNE,24,6.0,13.0,46,0.00,,---,0.00,264.00,VWS V14.01,2013-03-14 19:00:00,
2013-03-14 15:10:00,36.6,18.3,30.17,WNW,294,8.0,19.0,47,0.00,,---,0.00,213.00,VWS V14.01,2013-03-14 19:10:00,
2013-03-14 15:15:00,36.0,18.7,30.17,NW,321,10.0,14.0,49,0.00,,---,0.00,134.00,VWS V14.01,2013-03-14 19:15:00,
2013-03-14 15:25:00,38.6,20.1,30.17,WSW,239,3.0,15.0,47,0.00,,---,0.00,870.00,VWS V14.01,2013-03-14 19:25:00,
2013-03-14 15:30:00,38.7,18.7,30.17,NW,304,4.0,18.0,44,0.00,,---,0.00,200.00,VWS V14.01,2013-03-14 19:30:00,
2013-03-14 15:40:00,37.8,20.8,30.16,WNW,294,11.0,17.0,50,0.00,,---,0.00,773.00,VWS V14.01,2013-03-14 19:40:00,
2013-03-14 15:45:00,38.6,19.6,30.16,NNW,342,10.0,16.0,46,0.00,,---,0.00,789.00,VWS V14.01,2013-03-14 19:45:00,
2013-03-14 15:55:00,39.1,19.0,30.16,WNW,282,5.0,16.0,44,0.00,,---,0.00,731.00,VWS V14.01,2013-03-14 19:55:00,
2013-03-14 16:05:00,37.9,19.0,30.16,NW,326,10.0,11.0,46,0.00,,---,0.00,190.00,VWS V14.01,2013-03-14 20:05:00,
2013-03-14 16:10:00,38.4,19.9,30.16,NW,311,0.0,10.0,47,0.00,,---,0.00,682.00,VWS V14.01,2013-03-14 20:10:00,
2013-03-14 16:20:00,39.1,19.0,30.16,NW,319,4.0,15.0,44,0.00,,---,0.00,643.00,VWS V14.01,2013-03-14 20:20:00,
2013-03-14 16:30:00,38.6,19.1,30.16,NW,315,9.0,14.0,45,0.00,,---,0.00,626.00,VWS V14.01,2013-03-14 20:30:00,
2013-03-14 16:35:00,39.0,19.0,30.16,NW,310,3.0,11.0,44,0.00,,---,0.00,563.00,VWS V14.01,2013-03-14 20:35:00,
2013-03-14 16:40:00,39.6,19.0,30.16,NW,312,4.0,15.0,43,0.00,,---,0.00,540.00,VWS V14.01,2013-03-14 20:40:00,
2013-03-14 16:45:00,39.6,18.4,30.16,ENE,57,4.0,10.0,42,0.00,,---,0.00,188.00,VWS V14.01,2013-03-14 20:45:00,
2013-03-14 16:50:00,38.8,19.3,30.15,WNW,300,3.0,11.0,45,0.00,,---,0.00,496.00,VWS V14.01,2013-03-14 20:50:00,
2013-03-14 17:00:00,38.0,18.0,30.15,NW,310,4.0,13.0,44,0.00,,---,0.00,79.00,VWS V14.01,2013-03-14 21:00:00,
2013-03-14 17:05:00,37.7,18.3,30.15,WNW,301,8.0,13.0,45,0.00,,---,0.00,72.00,VWS V14.01,2013-03-14 21:05:00,
2013-03-14 17:10:00,37.4,17.0,30.15,North,355,6.0,11.0,43,0.00,,---,0.00,81.00,VWS V14.01,2013-03-14 21:10:00,
2013-03-14 17:15:00,37.3,17.9,30.15,WNW,292,5.0,14.0,45,0.00,,---,0.00,100.00,VWS V14.01,2013-03-14 21:15:00,
2013-03-14 17:25:00,37.7,18.3,30.15,NNW,333,5.0,13.0,45,0.00,,---,0.00,72.00,VWS V14.01,2013-03-14 21:25:00,
2013-03-14 17:30:00,37.6,18.2,30.14,WNW,287,7.0,13.0,45,0.00,,---,0.00,63.00,VWS V14.01,2013-03-14 21:30:00,
2013-03-14 17:35:00,37.5,18.1,30.15,NW,319,4.0,11.0,45,0.00,,---,0.00,81.00,VWS V14.01,2013-03-14 21:35:00,
2013-03-14 17:40:00,37.5,18.6,30.15,WNW,299,4.0,13.0,46,0.00,,---,0.00,63.00,VWS V14.01,2013-03-14 21:40:00,
2013-03-14 17:45:00,37.3,17.9,30.15,WNW,302,11.0,14.0,45,0.00,,---,0.00,49.00,VWS V14.01,2013-03-14 21:45:00,
2013-03-14 17:55:00,36.9,18.1,30.15,NW,315,2.0,16.0,46,0.00,,---,0.00,46.00,VWS V14.01,2013-03-14 21:55:00,
2013-03-14 18:00:00,37.0,18.2,30.15,WNW,297,10.0,11.0,46,0.00,,---,0.00,39.00,VWS V14.01,2013-03-14 22:00:00,
2013-03-14 18:05:00,37.0,18.2,30.15,NW,321,5.0,17.0,46,0.00,,---,0.00,37.00,VWS V14.01,2013-03-14 22:05:00,
2013-03-14 18:15:00,36.9,18.1,30.15,NW,306,3.0,8.0,46,0.00,,---,0.00,33.00,VWS V14.01,2013-03-14 22:15:00,
2013-03-14 18:20:00,36.9,18.1,30.15,NW,323,4.0,12.0,46,0.00,,---,0.00,32.00,VWS V14.01,2013-03-14 22:20:00,
2013-03-14 18:25:00,36.8,17.5,30.15,NW,307,2.0,12.0,45,0.00,,---,0.00,30.00,VWS V14.01,2013-03-14 22:25:00,
2013-03-14 18:35:00,36.6,18.3,30.15,NW,323,3.0,9.0,47,0.00,,---,0.00,28.00,VWS V14.01,2013-03-14 22:35:00,
2013-03-14 18:45:00,36.4,18.1,30.15,West,278,1.0,7.0,47,0.00,,---,0.00,25.00,VWS V14.01,2013-03-14 22:45:00,
2013-03-14 18:50:00,36.3,18.0,30.15,NW,309,3.0,10.0,47,0.00,,---,0.00,25.00,VWS V14.01,2013-03-14 22:50:00,
2013-03-14 18:55:00,36.2,18.4,30.16,WNW,285,2.0,9.0,48,0.00,,---,0.00,21.00,VWS V14.01,2013-03-14 22:55:00,
2013-03-14 19:00:00,36.2,17.9,30.15,NNW,342,5.0,13.0,47,0.00,,---,0.00,18.00,VWS V14.01,2013-03-14 23:00:00,
2013-03-14 19:10:00,35.9,18.1,30.15,WNW,285,4.0,7.0,48,0.00,,---,0.00,12.00,VWS V14.01,2013-03-14 23:10:00,
2013-03-14 19:20:00,35.5,17.8,30.16,NNW,340,4.0,6.0,48,0.00,,---,0.00,5.00,VWS V14.01,2013-03-14 23:20:00,
2013-03-14 19:25:00,35.3,18.1,30.16,WNW,298,0.0,9.0,49,0.00,,---,0.00,0.00,VWS V14.01,2013-03-14 23:25:00,
2013-03-14 19:35:00,35.0,18.2,30.16,WSW,246,0.0,13.0,50,0.00,,---,0.00,0.00,VWS V14.01,2013-03-14 23:35:00,
2013-03-14 19:40:00,34.9,18.2,30.16,NNW,340,9.0,11.0,50,0.00,,---,0.00,0.00,VWS V14.01,2013-03-14 23:40:00,
2013-03-14 19:45:00,34.8,18.5,30.16,WSW,250,0.0,10.0,51,0.00,,---,0.00,0.00,VWS V14.01,2013-03-14 23:45:00,
2013-03-14 19:55:00,34.4,18.2,30.16,WNW,285,0.0,10.0,51,0.00,,---,0.00,0.00,VWS V14.01,2013-03-14 23:55:00,
2013-03-14 20:05:00,34.1,18.8,30.16,NW,321,1.0,5.0,53,0.00,,---,0.00,0.00,VWS V14.01,2013-03-15 00:05:00,
2013-03-14 20:10:00,34.0,18.7,30.16,WNW,298,0.0,8.0,53,0.00,,---,0.00,0.00,VWS V14.01,2013-03-15 00:10:00,
2013-03-14 20:15:00,33.9,18.6,30.16,WNW,300,0.0,3.0,53,0.00,,---,0.00,0.00,VWS V14.01,2013-03-15 00:15:00,
2013-03-14 20:20:00,33.7,18.8,30.16,West,270,0.0,4.0,54,0.00,,---,0.00,0.00,VWS V14.01,2013-03-15 00:20:00,
2013-03-14 20:25:00,33.4,18.6,30.16,WNW,289,1.0,3.0,54,0.00,,---,0.00,0.00,VWS V14.01,2013-03-15 00:25:00,
2013-03-14 20:35:00,33.1,18.7,30.16,NNW,338,2.0,5.0,55,0.00,,---,0.00,0.00,VWS V14.01,2013-03-15 00:35:00,
2013-03-14 20:45:00,33.0,18.6,30.16,WSW,247,0.0,5.0,55,0.00,,---,0.00,0.00,VWS V14.01,2013-03-15 00:45:00,
2013-03-14 20:50:00,33.0,18.6,30.16,WNW,294,4.0,4.0,55,0.00,,---,0.00,0.00,VWS V14.01,2013-03-15 00:50:00,
2013-03-14 20:55:00,32.9,18.9,30.16,NW,308,0.0,8.0,56,0.00,,---,0.00,0.00,VWS V14.01,2013-03-15 00:55:00,
2013-03-14 21:00:00,32.8,18.8,30.16,WNW,283,0.0,4.0,56,0.00,,---,0.00,0.00,VWS V14.01,2013-03-15 01:00:00,
2013-03-14 21:10:00,32.5,19.0,30.16,NNW,333,0.0,4.0,57,0.00,,---,0.00,0.00,VWS V14.01,2013-03-15 01:10:00,
2013-03-14 21:20:00,32.2,19.1,30.16,NW,321,0.0,5.0,58,0.00,,---,0.00,0.00,VWS V14.01,2013-03-15 01:20:00,
2013-03-14 21:30:00,32.0,18.9,30.16,WNW,302,0.0,4.0,58,0.00,,---,0.00,0.00,VWS V14.01,2013-03-15 01:30:00,
2013-03-14 21:40:00,31.8,19.1,30.16,NW,321,0.0,2.0,59,0.00,,---,0.00,0.00,VWS V14.01,2013-03-15 01:40:00,
2013-03-14 21:45:00,31.6,18.9,30.16,NW,321,0.0,0.0,59,0.00,,---,0.00,0.00,VWS V14.01,2013-03-15 01:45:00,
2013-03-14 21:55:00,31.0,19.1,30.17,NNW,327,0.0,0.0,61,0.00,,---,0.00,0.00,VWS V14.01,2013-03-15 01:55:00,
2013-03-14 22:00:00,30.7,19.2,30.16,NW,323,0.0,0.0,62,0.00,,---,0.00,0.00,VWS V14.01,2013-03-15 02:00:00,
2013-03-14 22:05:00,30.5,19.4,30.17,WNW,286,0.0,3.0,63,0.00,,---,0.00,0.00,VWS V14.01,2013-03-15 02:05:00,
2013-03-14 22:10:00,30.3,19.2,30.17,WNW,286,0.0,0.0,63,0.00,,---,0.00,0.00,VWS V14.01,2013-03-15 02:10:00,
2013-03-14 22:15:00,30.1,19.4,30.17,WNW,286,0.0,0.0,64,0.00,,---,0.00,0.00,VWS V14.01,2013-03-15 02:15:00,
2013-03-14 22:25:00,29.8,19.5,30.17,WNW,286,0.0,0.0,65,0.00,,---,0.00,0.00,VWS V14.01,2013-03-15 02:25:00,
2013-03-14 22:30:00,29.6,19.6,30.17,WNW,286,0.0,0.0,66,0.00,,---,0.00,0.00,VWS V14.01,2013-03-15 02:30:00,
2013-03-14 22:35:00,29.5,19.2,30.17,WNW,286,0.0,0.0,65,0.00,,---,0.00,0.00,VWS V14.01,2013-03-15 02:35:00,
2013-03-14 22:45:00,29.2,19.3,30.17,WNW,286,0.0,0.0,66,0.00,,---,0.00,0.00,VWS V14.01,2013-03-15 02:45:00,
2013-03-14 22:50:00,29.0,19.4,30.17,WNW,286,0.0,0.0,67,0.00,,---,0.00,0.00,VWS V14.01,2013-03-15 02:50:00,
2013-03-14 23:00:00,28.7,19.5,30.17,WNW,286,0.0,0.0,68,0.00,,---,0.00,0.00,VWS V14.01,2013-03-15 03:00:00,
2013-03-14 23:10:00,28.5,19.6,30.16,WNW,286,0.0,0.0,69,0.00,,---,0.00,0.00,VWS V14.01,2013-03-15 03:10:00,
2013-03-14 23:20:00,28.0,19.2,30.17,WNW,286,0.0,0.0,69,0.00,,---,0.00,0.00,VWS V14.01,2013-03-15 03:20:00,
2013-03-14 23:25:00,27.9,19.4,30.16,WNW,286,0.0,0.0,70,0.00,,---,0.00,0.00,VWS V14.01,2013-03-15 03:25:00,
2013-03-14 23:35:00,27.6,19.4,30.16,WNW,286,0.0,0.0,71,0.00,,---,0.00,0.00,VWS V14.01,2013-03-15 03:35:00,
2013-03-14 23:40:00,27.4,19.2,30.16,WNW,286,0.0,0.0,71,0.00,,---,0.00,0.00,VWS V14.01,2013-03-15 03:40:00,
2013-03-14 23:45:00,27.1,19.3,30.16,WNW,286,0.0,0.0,72,0.00,,---,0.00,0.00,VWS V14.01,2013-03-15 03:45:00,
2013-03-14 23:55:00,26.9,19.4,30.16,WNW,286,0.0,0.0,73,0.00,,---,0.00,0.00,VWS V14.01,2013-03-15 03:55:00,